カタログに戻る

CHUANG XIN 19

CX-19

運用中科学PO
NORAD 58505·PAYLOAD·🇨🇳 China

打ち上げ Dec 5, 2023 から South China Sea Launch Area

Loading…

次のパス (今後24時間)

TLE

最新Source: Space-Track

元期: Sep 14, 2026, 23:02 UTC

1 58505U 23190A   26257.95990418  .00000041  00000-0  48339-4 0  9991
2 58505  86.5009 301.5242 0001832 109.2344 250.8997 13.39558179136716

AllMySatでCHUANG XIN 19をリアルタイム追跡

Download on the App Store